Home   Weather   Langkawi   Past weeks

Flag for Malaysia Past Weather in Langkawi, Malaysia — Yesterday and Last 2 Weeks

Now
84 °F

Partly sunny.


Feels Like: 94 °F
Forecast: 79 / 84 °F
Wind: 3 mph from Northeast

Location: Langkawi

Current Time: Dec 11, 2016 at 10:28:51 am

Latest Report: Dec 11, 2016 at 10:00 am


Visibility: N/A

Pressure: 29.86 "Hg

Humidity: 79%

Dew Point: 77 °F

Location of LangkawiLocation

Past Weather in Langkawi — Graph

°F

Langkawi Temperature Yesterday

Maximum temperature yesterday: 90 °F (at 3:00 pm)
Minimum temperature yesterday: 81 °F (at 2:00 am)
Average temperature yesterday: 84 °F

High & Low Weather Summary for the Past Weeks

 TemperatureHumidityPressure
High93 °F (Nov 26, 2:00 pm)100% (Nov 27, 7:00 am)29.95 "Hg (Nov 27, 7:00 am)
Low75 °F (Dec 2, 7:00 am)59% (Nov 26, 2:00 pm)29.68 "Hg (Nov 26, 4:00 pm)
Average83 °F83%29.79 "Hg
* Reported Nov 26 9:00 am — Dec 11 9:00 am, Langkawi, Weather by CustomWeather, © 2016

Note: Actual official high and low records may vary slightly from our data, if they occured in-between our weather recording intervals... More about our weather records

Advertising

Langkawi Weather History for the Previous 24 Hours

Scroll right to see more
 ConditionsComfort  
Time TempWeatherWind HumidityBarometerVisibility
9:00 am
Sun, Dec 11
82 °FPartly sunny.3 mph84%29.86 "HgN/A
8:00 am81 °FBroken clouds.2 mph84%29.80 "HgN/A
7:00 am81 °FPartly cloudy.5 mph84%29.77 "HgN/A
6:00 am81 °FPassing clouds.3 mph84%29.77 "HgN/A
3:00 am81 °FPassing clouds.No wind89%29.77 "HgN/A
2:00 am81 °FPassing clouds.2 mph89%29.80 "HgN/A
1:00 am81 °FPassing clouds.1 mph89%29.83 "HgN/A
12:00 am82 °FPassing clouds.2 mph84%29.83 "HgN/A
11:00 pm
Sat, Dec 10
82 °FPassing clouds.2 mph84%29.83 "HgN/A
10:00 pm82 °FPartly cloudy.2 mph84%29.83 "HgN/A
9:00 pm82 °FPartly cloudy.1 mph79%29.80 "HgN/A
8:00 pm84 °FPartly cloudy.2 mph74%29.77 "HgN/A
7:00 pm84 °FBroken clouds.3 mph74%29.74 "HgN/A
6:00 pm86 °FBroken clouds.5 mph70%29.71 "HgN/A
5:00 pm86 °FBroken clouds.7 mph66%29.71 "HgN/A
4:00 pm90 °FBroken clouds.7 mph63%29.71 "HgN/A
3:00 pm90 °FBroken clouds.3 mph71%29.74 "HgN/A
2:00 pm88 °FBroken clouds.3 mph70%29.77 "HgN/A
1:00 pm88 °FPartly sunny.6 mph70%29.77 "HgN/A
12:00 pm86 °FPartly sunny.8 mph75%29.77 "HgN/A
11:00 am84 °FPartly sunny.3 mph79%29.80 "HgN/A
10:00 am84 °FPartly sunny.8 mph79%29.80 "HgN/A
Weather by CustomWeather, © 2016

See weather overviewHow to use our weather pages